Location: Penticton
(49.5000°N, 119.5830°W)
Time: 21:59:55
(UTC-07:00)

Daily predictions for brighter satellites

Satellite Brightness Start Highest point End
(mag) Time Altitude Azimuth Time Altitude Azimuth Time Altitude Azimuth
Meteor 2-16 Rocket 4.5 20:19:04 10° S 20:25:03 64° E 20:31:05 10° NNE
Cosmos 1821 Rocket 4.0 20:19:26 10° S 20:25:31 78° E 20:31:38 10° NNE
Meteor 1-11 Rocket 4.4 20:22:54 10° SSW 20:28:25 61° WNW 20:33:55 10° N
Cosmos 1605 Rocket 4.2 20:22:27 10° SSE 20:28:32 51° E 20:34:35 10° NNE
Iridium 4 Rocket 3.9 20:24:53 10° N 20:29:54 41° E 20:34:27 10° SSE
Cosmos 1656 Rocket 4.3 20:24:35 10° SW 20:30:07 63° WNW 20:35:36 10° NNE
Okean 2 3.7 20:26:50 10° NNW 20:31:03 74° W 20:35:11 10° S
YAOGAN 11 4.4 20:29:44 10° SE 20:34:07 51° ENE 20:38:26 10° N
Cosmos 1975 3.6 20:31:53 10° SSE 20:35:34 33° E 20:39:15 10° NNE
Lacrosse 5 rocket 1.5 20:37:44 10° WNW 20:41:28 57° SW 20:45:02 10° SE
BREEZE-M DEB (TANK) 1.3 20:42:36 10° W 20:44:35 69° SSW 20:47:27 12° ESE
Cosmos 1626 Rocket 3.6 20:42:23 10° N 20:46:50 69° E 20:51:11 10° SSE
H-2A R/B 2.8 20:43:40 10° SE 20:47:21 33° ENE 20:51:06 10° N
EO 1 Delta rocket 3.9 20:44:29 10° N 20:49:07 85° E 20:54:10 10° S
Cosmos 1697 Rocket 3.6 20:45:49 10° SSE 20:50:20 25° ESE 20:54:53 10° NE
H-2A R/B 3.7 20:47:48 10° S 20:51:35 50° W 20:55:26 10° NNW
ALOS 3.3 20:47:21 10° S 20:51:51 47° W 20:56:24 10° NNW
Cosmos 2278 3.7 20:47:02 10° SSW 20:52:38 64° ESE 20:58:17 10° NNE
Cosmos 2123 Rocket 4.3 20:46:28 10° NNW 20:52:39 74° W 20:58:47 10° S
Cosmos 1461 3.8 20:49:13 10° NW 20:53:07 42° WSW 20:56:52 10° SSE
ERS-1 Rocket 3.0 20:49:06 10° SSE 20:54:06 71° ENE 20:59:07 10° N
Cosmos 1898 Rocket 3.6 20:49:02 10° NNW 20:54:21 64° ENE 20:59:26 11° SE
Cosmos 1602 Rocket 3.6 20:50:46 10° N 20:55:17 83° E 20:59:44 10° S
Cosmos 1455 Rocket 3.2 20:51:08 10° SSW 20:55:28 80° W 20:59:52 10° N
NOSS 2-1 (D) 3.8 20:57:43 10° SW 21:01:41 73° NW 21:06:31 10° NE
NOSS 2-1 (C) 3.8 20:58:44 10° SW 21:02:43 73° NW 21:07:33 10° NE
Meteor 1-12 Rocket 4.3 20:58:36 10° S 21:04:18 73° E 21:10:09 10° NNE
Cosmos 2369 3.7 21:00:21 10° SSW 21:05:59 71° ESE 21:11:41 10° NNE
Cosmos 1939 Rocket 2.9 21:03:47 10° SSE 21:07:55 77° ENE 21:12:06 10° N
Cosmos 1980 Rocket 3.2 21:08:26 11° SSE 21:12:32 24° ESE 21:16:58 10° NE
Cosmos 1459 Rocket 4.2 21:07:21 10° SSE 21:13:04 46° E 21:18:51 10° NNE
ATLAS CENTAUR R/B 3.8 21:10:23 10° W 21:14:47 30° NW 21:19:04 10° NNE
Lacrosse 5 1.9 21:09:55 10° WNW 21:15:00 86° SW 21:18:37 19° SE
ARGOS 4.0 21:12:23 17° ESE 21:15:54 35° ENE 21:20:46 10° N
Cosmos 2084 3.5 21:11:59 10° NW 21:15:58 70° SW 21:18:58 18° SSE
Cosmos 468 Rocket 4.3 21:13:13 10° S 21:18:02 42° ESE 21:22:51 10° NE
NOSS 2-1 (E) 4.2 21:14:45 10° WSW 21:18:48 60° NW 21:23:46 10° NE
USA 186 4.2 21:16:47 10° SW 21:19:09 20° W 21:21:24 10° NW
Tiangong 1 2.4 21:17:12 10° WSW 21:19:44 23° S 21:20:21 22° SSE
Cosmos 1666 4.2 21:22:16 18° E 21:22:21 18° E 21:24:59 10° NE
Cosmos 2058 Rocket 4.4 21:21:52 20° ESE 21:23:00 22° E 21:26:29 10° NE
SPOT 5 2.9 21:20:37 16° SSE 21:24:37 66° ENE 21:29:23 10° N
Cosmos 1153 Rocket 4.5 21:19:17 10° S 21:25:29 90° E 21:31:40 10° N
Cosmos 1814 Rocket 4.4 21:21:18 10° S 21:26:19 43° ESE 21:31:20 10° NE
Meteor 1-21 4.4 21:22:24 10° N 21:28:06 60° ENE 21:32:13 19° SSE
RESURS DK-1 2.3 21:27:43 10° NNW 21:31:54 89° ENE 21:34:13 25° SSE
Cosmos 1500 3.1 21:29:09 10° S 21:32:55 88° E 21:36:43 10° N
Cosmos 1606 Rocket 4.0 21:31:48 24° SE 21:33:54 40° E 21:38:04 10° NNE
MetOp-B 4.1 21:30:43 19° SSE 21:34:37 72° ENE 21:39:59 10° NNW
Cosmos 2227 Rocket 3.8 21:30:22 10° NW 21:35:17 31° WSW 21:40:10 10° SSW
Cosmos 2263 Rocket 3.6 21:32:12 10° NNW 21:36:48 26° NE 21:39:56 16° E
PSLV R/B 3.3 21:36:12 40° SE 21:36:58 54° ENE 21:39:58 10° N
USA 215 3.3 21:32:14 19° ESE 21:37:07 76° NNE 21:43:40 10° WNW
Cosmos 1802 Rocket 4.1 21:32:54 10° S 21:39:10 62° E 21:45:32 10° NNE
Cosmos 1340 2.6 21:39:17 10° N 21:43:06 76° ENE 21:44:43 33° SSE
Cosmos 2322 Rocket 3.8 21:45:09 16° E 21:45:09 16° E 21:47:42 10° ENE
CZ-4 SHROUD 3.2 21:43:50 48° ESE 21:44:24 60° ENE 21:47:27 10° N
Cosmos 1656 3.6 21:40:39 10° SSW 21:46:17 83° ESE 21:51:51 10° NNE
SL-08 RB Rocket 4.1 21:45:33 30° SE 21:47:28 48° ENE 21:51:56 10° N
Cosmos 405 Rocket 4.2 21:44:57 10° NNE 21:47:56 21° ENE 21:48:12 21° ENE
Cosmos 2297 Rocket 3.7 21:46:00 10° NW 21:50:58 32° WSW 21:55:54 10° SSW
SL-19 R/B 4.4 21:47:04 10° NNE 21:52:28 48° E 21:55:05 27° SSE
Cosmos 2227 4.2 21:48:32 10° NNW 21:54:21 84° ENE 21:57:19 30° SSE
Cosmos 2016 Rocket 3.9 21:52:14 16° S 21:57:13 70° E 22:03:24 10° NNE
Cosmos 1726 Rocket 3.6 21:56:28 35° SSE 21:58:06 59° E 22:02:27 10° NNE
Envisat 4.0 21:54:43 10° S 21:59:33 43° W 22:04:24 10° NNW
YAOGAN 6 2.8 21:58:35 34° S 22:00:02 69° W 22:03:45 10° NNW
Cosmos 1937 Rocket 4.1 21:55:32 10° NNW 22:00:40 54° WSW 22:04:02 21° S
H-2A R/B 2.5 22:00:30 33° ESE 22:02:05 43° ENE 22:06:44 10° N
ASTEX 1 3.3 21:57:19 10° N 22:02:22 84° E 22:05:29 24° S
Terra 2.6 22:02:31 31° E 22:03:43 36° ENE 22:08:04 10° N
Cosmos 1743 2.9 22:03:30 22° SSW 22:05:58 71° W 22:09:55 10° N
Cosmos 1825 Rocket 4.2 22:02:42 10° NNW 22:07:03 54° W 22:09:39 22° SSW
Cosmos 2173 Rocket 4.2 22:03:44 10° SSW 22:10:06 75° W 22:16:28 10° N
GEOS 3 Rocket 4.2 22:07:30 10° NE 22:11:27 34° ESE 22:11:27 34° ESE
Cosmos 2098 Rocket 4.0 22:07:38 22° S 22:12:15 69° E 22:17:59 10° NNE
Cosmos 1953 Rocket 4.0 22:11:43 10° NNW 22:16:05 59° W 22:18:06 30° SSW
SPOT 1/Viking Rocket 3.7 22:18:31 32° S 22:20:59 70° WSW 22:26:13 10° NNW
Spot 4 4.5 22:20:58 36° E 22:21:45 39° ENE 22:26:13 10° N
CZ-4B R/B 3.3 22:17:07 10° NNE 22:21:52 64° ESE 22:22:56 49° SSE
Cosmos 2061 Rocket 4.4 22:15:46 10° SSW 22:22:01 63° WNW 22:28:15 10° N
Tsikada Rocket 4.0 22:15:41 10° N 22:22:09 88° E 22:25:17 33° S
H-2A R/B 3.7 22:20:48 15° SSW 22:23:27 27° W 22:27:00 10° NW
Cosmos 1842 3.5 22:19:39 10° NNW 22:23:34 66° W 22:24:18 52° SSW
Cosmos 1864 Rocket 4.3 22:21:48 31° S 22:24:50 75° E 22:30:58 10° NNE
GP-B 3.8 22:27:22 10° NNE 22:31:16 39° ENE 22:31:16 39° ENE
Cosmos 1697 Rocket 3.1 22:28:18 10° SW 22:33:54 62° WNW 22:39:31 10° NNE
Cosmos 1758 Rocket 4.5 22:30:59 10° NNW 22:35:08 43° W 22:36:40 31° SW
Cosmos 1707 3.9 22:34:12 10° N 22:37:13 33° NE 22:37:13 33° NE
SL-16 R/B 2.7 22:39:10 40° E 22:39:10 40° E 22:44:00 10° NE
Cosmos 1125 Rocket 3.5 22:37:28 10° NNW 22:42:41 73° WSW 22:43:49 54° S
Cosmos 2228 2.8 22:42:45 82° SSW 22:42:57 89° W 22:47:16 10° N
IGS 5A 3.4 22:43:02 70° ENE 22:43:02 70° ENE 22:47:07 10° N
Cosmos 1763 Rocket 3.6 22:44:11 26° SW 22:47:06 72° WNW 22:52:12 10° NNE
Cosmos 2346 Rocket 4.4 22:43:15 10° N 22:49:32 79° E 22:51:10 52° SSE
Cosmos 1844 Rocket 4.3 22:45:37 10° N 22:50:04 23° NE 22:52:10 19° ENE
Meteor 2-5 Rocket 3.8 22:46:58 10° N 22:52:57 74° ENE 22:54:06 57° SE
Cosmos 1725 Rocket 4.2 22:52:04 27° SSW 22:55:32 68° WNW 23:01:47 10° N
Cosmos 1980 Rocket 2.5 22:50:24 10° SW 22:56:02 66° WNW 23:01:45 10° NNE
ARGOS 4.1 22:53:54 28° SW 22:56:05 40° W 23:01:10 10° NNW
Cosmos 2360 Rocket 3.8 22:58:48 20° ENE 22:58:48 20° ENE 23:01:20 10° NE
Lacrosse 5 3.5 22:53:39 10° WNW 22:57:24 21° SW 22:57:49 21° SW
Cosmos 1666 3.8 22:57:14 36° W 22:57:46 39° WNW 23:01:22 10° N
Meteor 1-15 Rocket 4.4 22:55:14 34° SSW 22:57:54 73° WNW 23:03:48 10° N
Cosmos 2058 Rocket 4.1 22:59:09 32° WSW 23:00:43 45° WNW 23:05:05 10° N
DELTA 2 DEB (DPAF) 4.4 23:01:08 56° WSW 23:01:26 57° WSW 23:05:52 10° NNW
DMSP B5D2-2 3.9 23:02:41 10° NNE 23:08:00 79° ESE 23:08:20 75° SSE
Cosmos 841 Rocket 4.0 23:05:06 25° SW 23:08:00 57° WNW 23:13:09 10° NNE
CZ-4C R/B 4.5 23:16:50 41° WSW 23:16:58 41° W 23:21:11 10° NNW
Cosmos 1441 Rocket 4.3 23:14:53 10° N 23:17:40 41° N 23:17:40 41° N
Meteor 1-24 Rocket 3.8 23:13:52 10° N 23:19:57 73° ENE 23:20:33 67° ESE
USA 215 3.7 23:19:35 42° SSW 23:20:26 44° SW 23:26:39 10° WNW
Cosmos 2263 Rocket 2.1 23:15:44 10° NNW 23:21:19 73° WSW 23:21:38 71° SW
CARTOSAT-1 4.4 23:21:55 42° W 23:21:55 42° W 23:25:53 10° NNW
Cosmos 2233 Rocket 4.2 23:21:05 44° SW 23:23:03 67° WNW 23:29:19 10° N
Cosmos 405 Rocket 4.3 23:20:41 10° NNW 23:23:27 31° WNW 23:23:27 31° WNW
Cosmos 2322 Rocket 2.1 23:26:54 73° SW 23:27:29 86° WNW 23:33:09 10° NNE
Cosmos 540 Rocket 3.4 23:31:10 82° NNW 23:31:10 82° NNW 23:36:12 10° NNE
Cosmos 332 Rocket 3.9 23:31:59 73° NNW 23:31:59 73° NNW 23:36:37 10° NNE
Cosmos 371 Rocket 3.8 23:37:22 54° NNE 23:37:22 54° NNE 23:41:09 10° NNE
Cosmos 2034 Rocket 4.0 23:40:39 64° E 23:40:42 64° E 23:46:48 10° NNE
Cosmos 1766 Rocket 4.5 23:36:53 10° N 23:40:15 44° NNE 23:40:15 44° NNE
Terra 3.1 23:41:24 32° W 23:41:29 32° W 23:45:46 10° NNW
H-2A R/B 3.3 23:41:08 28° WSW 23:41:39 29° W 23:45:56 10° NW
Cosmos 1812 Rocket 4.4 23:43:57 46° NW 23:43:57 46° NW 23:47:42 10° N
COSMOS 2428 4.2 23:49:05 23° ENE 23:49:05 23° ENE 23:51:56 10° NE
GEOS 3 Rocket 4.1 23:45:25 10° NE 23:50:26 56° NW 23:52:29 34° WSW
CZ-4B R/B 4.0 23:53:40 19° NNE 23:53:40 19° NNE 23:55:05 10° N
